Location: Newark
(44.6028°N, 124.0883°W)
Time: 14:05:07
(UTC+00:00)

Courier 1B - Visible Passes

Search period start: 16 October 2019 00:00
Search period end: 26 October 2019 00:00
Orbit: 962 x 1209 km, 28.3° (Epoch: 15 October)

Date Brightness Start Highest point End Pass type
(mag) Time Alt. Az. Time Alt. Az. Time Alt. Az.
16 Oct 9.5 03:33:35 10° SSW 03:37:55 16° SSE 03:38:22 16° SSE visible
17 Oct 9.7 02:40:49 10° S 02:44:20 14° SSE 02:47:49 10° SE visible
17 Oct 9.6 04:31:54 10° SW 04:34:54 18° SSW 04:34:54 18° SSW visible
18 Oct 9.3 03:38:25 10° SSW 03:43:45 20° S 03:44:30 20° SSE visible
18 Oct 10.2 05:31:22 10° SW 05:31:24 10° SW 05:31:24 10° SW visible
19 Oct 9.5 02:45:07 10° SSW 02:50:07 18° SSE 02:54:05 13° SE visible
19 Oct 9.5 04:37:32 10° SW 04:40:58 20° SSW 04:40:58 20° SSW visible
20 Oct 9.7 01:52:05 10° SSW 01:56:30 16° SSE 02:00:54 10° SE visible
20 Oct 9.2 03:43:51 10° SW 03:49:37 23° S 03:50:32 22° SSE visible
21 Oct 9.4 02:50:18 10° SW 02:55:57 22° S 03:00:04 14° SE visible
21 Oct 9.6 04:43:33 10° SW 04:46:57 19° SSW 04:46:57 19° SSW visible
22 Oct 9.6 01:56:54 10° SSW 02:02:18 20° SSE 02:07:41 10° SE visible
22 Oct 9.2 03:49:40 10° SW 03:55:28 23° S 03:56:30 22° S visible
23 Oct 9.4 02:55:56 10° SW 03:01:49 23° S 03:06:03 15° SE visible
23 Oct 9.8 04:49:56 10° SW 04:52:56 17° SSW 04:52:56 17° SSW visible
24 Oct 9.5 02:02:20 10° SW 02:08:09 23° S 02:13:57 10° SE visible
24 Oct 9.4 03:55:50 10° SW 04:01:19 21° S 04:02:30 20° S visible
25 Oct 9.5 03:01:55 10° SW 03:07:40 22° S 03:12:05 14° SSE visible
25 Oct 10.0 04:57:01 10° SW 04:58:59 13° SW 04:58:59 13° SW visible
